{"data":{"norad_id":68064,"epoch":"2026-05-25T03:33:25.123680Z","epoch_age_seconds":61550,"freshness":"FRESH","line1":"1 68064U 26041AA  26145.14820745  .00009744  00000+0  29894-3 0  9994","line2":"2 68064  53.1606  52.6540 0001177  96.7094 263.4042 15.34421238 13121","mean_motion":15.34421238,"eccentricity":0.0001177,"inclination_deg":53.1606,"raan_deg":52.654,"arg_perigee_deg":96.7094,"mean_anomaly_deg":263.4042,"bstar":0.00029894,"rev_number":1312,"period_min":93.846459129889,"perigee_km":461.8349576568,"apogee_km":463.44527659017,"semimajor_km":6840.7771171235,"source":"CELESTRAK","updated_at":"2026-05-25T13:38:21.815744Z"}}